[[{"header":{"parameterUnit":"m.s-1","parameterCategory":1,"la1":30.2991,"la2":30.254,"lo1":-89.0895,"lo2":-89.0444,"dy":0.0017,"dx":0.0017,"nx":28,"ny":28,"refTime":"2025-04-16T03:00:00:Z","depth":0,"parameterNumber":2,"parameterNumberName":"U-component_of_WINDS"},"data":[0,0,0,0,0,0,0,0,0,0,0,0,0,0,0,0,0,0,0,0,0,0,0,0,0,0,0,0,0,0,0,0,0,0,0,0,0,0,0,0,0,0,0,0,0,0,0,0,0,0,0,0,0,0,0,0,0,0,-1.0013,-1.0014,0,-1.0028,-1.0028,-1.0029,-1.0015,-1.0014,-1.0014,-1.0013,-1.003,-1.0031,-1.0032,0,0,0,0,0,0,0,0,0,0,0,0,0,-0.9975,-0.9976,-1.0013,-1.0014,-1.0014,-1.0028,-1.0028,-1.0029,-1.0015,-1.0014,-1.0014,-1.0013,-1.003,-1.0031,-1.0032,0,0,0,0,0,0,0,0,0,0,0,0,0,-0.9991,-0.9976,-1.0013,-1.0009,-1.0008,-1.0028,-1.0028,-1.0029,-1.0015,-1.0014,-1.0014,-1.0013,-1.0029,-1.0031,-1.0032,-1.0058,0,0,-1.0037,-1.0037,0,0,0,0,0,0,0,0,-0.999,-0.9992,-1.0009,-1.0009,-1.0009,-1.0019,-1.0021,-1.0038,-1.0015,-1.0013,-1.0013,-1.0012,-1.0027,-1.0029,-1.0033,-1.0059,-1.0059,-1.0037,-1.0038,-1.0038,-1.0039,0,0,0,0,0,0,0,-0.9989,-0.9992,-1.0019,-1.0009,-1.0009,-1.0006,-1.0008,-1.0024,-1.0024,-1.0013,-1.0012,-1.0014,-1.0027,-1.0032,-1.0034,-1.0059,-1.0037,-1.0038,-1.0039,-1.0039,-1.0107,-1.0108,0,0,0,0,0,0,-0.9988,-0.9991,-1.0019,-1.002,-0.9997,-1.0008,-1.0009,-1.0017,-1.0024,-1.0025,-1.0014,-1.0013,-1.003,-1.0032,-1.0034,-1.0065,-1.0038,-1.004,-1.004,-1.0106,-1.0107,-1.0108,0,0,0,0,0,0,-0.9987,-0.9991,-1.0018,-1.0005,-1.0008,-1.0009,-1.0018,-1.0017,-1.0022,-1.0025,-1.0026,-1.002,-1.0029,-1.0032,-1.0052,-1.0066,-1.004,-1.0042,-1.0105,-1.0106,-1.0107,-1.0127,0,0,0,0,0,0,-0.9986,-0.9991,-1.0,-1.0005,-1.0009,-1.0035,-1.0018,-1.0018,-1.0025,-1.0023,-1.003,-1.0031,-1.0029,-1.005,-1.0053,-1.0067,-1.0043,-1.0104,-1.0105,-1.0107,-1.0125,-1.0129,-1.0132,0,0,0,0,0,-0.9985,-1.0005,-1.0001,-1.0004,-1.0021,-1.0036,-1.0038,-1.0036,-1.0026,-1.0036,-1.0037,-1.003,-1.0063,-1.0052,-1.0056,-1.007,-1.0103,-1.0105,-1.0107,-1.0124,-1.0128,-1.0132,0,0,0,0,0,0,-1.0002,-1.0006,-1.0001,-1.0023,-1.0029,-1.0034,-1.0046,-1.004,-1.005,-1.0048,-1.0045,-1.0046,-1.0067,-1.0071,-1.0058,-1.0095,-1.0081,-1.0084,-1.0093,-1.0097,-1.01,-1.01,-1.0044,0,0,0,0,0,-1.0008,-1.002,-1.0023,-1.0042,-1.0046,-1.0045,-1.0052,-1.0049,-1.0056,-1.0059,-1.0062,-1.0069,-1.0081,-1.0089,-1.01,-1.0125,-1.0127,-1.0137,-1.014,-1.0143,-1.0146,-1.016,-1.0164,-1.0115,-1.0115,-1.0115,0,0,-1.0022,-1.0025,-1.0033,-1.0046,-1.005,-1.0063,-1.0048,-1.0062,-1.0072,-1.0061,-1.008,-1.0083,-1.009,-1.0113,-1.0123,-1.0116,-1.016,-1.0145,-1.0148,-1.0149,-1.0162,-1.0167,-1.0171,-1.0116,-1.0116,-1.0116,0,0,-1.0053,-1.0056,-1.0073,-1.0078,-1.0084,-1.0084,-1.0088,-1.0093,-1.0095,-1.0113,-1.0106,-1.0117,-1.0138,-1.0144,-1.0149,-1.0182,-1.0176,-1.0186,-1.0204,-1.0218,-1.0222,-1.0225,-1.0238,-1.0242,-1.0188,-1.0188,-1.0188,0,-1.0069,-1.0087,-1.0083,-1.0097,-1.0104,-1.0093,-1.0111,-1.0116,-1.0126,-1.0131,-1.0123,-1.0148,-1.0153,-1.0177,-1.0185,-1.0189,-1.0194,-1.0185,-1.0221,-1.0225,-1.0228,-1.024,-1.0245,-1.019,-1.0189,-1.0189,-1.0189,0,-1.0107,-1.012,-1.0133,-1.0143,-1.015,-1.0166,-1.0164,-1.0172,-1.0169,-1.0169,-1.0189,-1.0193,-1.0206,-1.0211,-1.0207,-1.0235,-1.023,-1.0222,-1.0208,-1.0234,-1.0245,-1.025,-1.0191,-1.0191,-1.019,-1.019,0,0,-1.015,-1.0157,-1.0162,-1.0166,-1.0173,-1.0183,-1.0198,-1.021,-1.0217,-1.0224,-1.0238,-1.0255,-1.0247,-1.0254,-1.0251,-1.0263,-1.0289,-1.0253,-1.0253,-1.026,-1.032,-1.0327,-1.0333,-1.0285,-1.0285,-1.0286,-1.032,0,-1.0182,-1.0209,-1.0205,-1.0231,-1.0244,-1.0234,-1.0248,-1.0253,-1.0254,-1.0265,-1.0266,-1.0278,-1.0267,-1.0271,-1.0282,-1.0284,-1.0301,-1.0281,-1.0298,-1.0299,-1.0298,-1.0338,-1.0346,-1.0378,-1.0324,-1.0325,-1.0325,0,-1.0224,-1.0232,-1.0259,-1.0264,-1.0269,-1.0281,-1.0291,-1.0301,-1.0308,-1.0307,-1.0314,-1.0309,-1.0325,-1.031,-1.0333,-1.0319,-1.0326,-1.0328,-1.0329,-1.0331,-1.0315,-1.0343,-1.0387,-1.0393,-1.0332,-1.0331,-1.0331,0,-1.0254,-1.0272,-1.029,-1.0294,-1.03,-1.0309,-1.0312,-1.0317,-1.0324,-1.0333,-1.0338,-1.0348,-1.0354,-1.0363,-1.0361,-1.035,-1.0384,-1.0369,-1.0385,-1.0385,-1.0394,-1.0394,-1.0441,-1.0396,-1.0396,-1.0396,-1.0396,0,-1.0291,-1.0308,-1.0304,-1.0316,-1.0335,-1.033,-1.0349,-1.0351,-1.0356,-1.0368,-1.036,-1.0372,-1.0368,-1.0379,-1.0378,-1.0397,-1.04,-1.0401,-1.04,-1.0402,-1.0402,-1.0407,-1.0405,-1.0397,-1.0397,-1.0397,-1.0397,0,-1.0329,-1.0326,-1.0346,-1.035,-1.0351,-1.0365,-1.0368,-1.0379,-1.0379,-1.0394,-1.0398,-1.0398,-1.0411,-1.0409,-1.0424,-1.0423,-1.0447,-1.0444,-1.0445,-1.0445,-1.0462,-1.0461,-1.0515,-1.0523,-1.0472,-1.0472,-1.0473,0,-1.0353,-1.0366,-1.037,-1.0378,-1.0381,-1.0393,-1.04,-1.0395,-1.0403,-1.0411,-1.0421,-1.0434,-1.0443,-1.0465,-1.0467,-1.0478,-1.0475,-1.0494,-1.0477,-1.0478,-1.0477,-1.0477,-1.0478,-1.0497,-1.0498,-1.0498,-1.0499,0,-1.0397,-1.0395,-1.0405,-1.0415,-1.0423,-1.0431,-1.0437,-1.0444,-1.044,-1.0449,-1.0462,-1.047,-1.0484,-1.0497,-1.0508,-1.0511,-1.0505,-1.0504,-1.0508,-1.0511,-1.0512,-1.0512,-1.0455,-1.0503,-1.0502,-1.0502,-1.0502,-1.0502,-1.0429,-1.0441,-1.0445,-1.0457,-1.0461,-1.0468,-1.0478,-1.0479,-1.049,-1.0501,-1.0498,-1.0513,-1.0519,-1.0532,-1.0537,-1.0549,-1.0542,-1.0549,-1.0551,-1.0553,-1.0555,-1.0509,-1.0551,-1.055,-1.055,-1.055,-1.055,0,-1.0474,-1.0476,-1.0486,-1.0496,-1.0505,-1.0497,-1.0504,-1.0513,-1.0526,-1.0531,-1.0541,-1.0556,-1.0568,-1.057,-1.0582,-1.0591,-1.0588,-1.0594,-1.0594,-1.0595,-1.056,-1.0555,-1.0596,-1.0596,-1.0596,-1.0596,-1.0596,-1.0596,-1.0498,-1.0517,-1.0515,-1.0536,-1.0539,-1.0553,-1.0558,-1.0564,-1.0568,-1.0585,-1.0595,-1.0596,-1.0601,-1.0612,-1.0623,-1.0623,-1.0629,-1.0636,-1.0635,-1.0602,-1.0598,-1.0593,-1.0589,-1.0637,-1.0637,-1.067,-1.067,-1.0671]},{"header":{"parameterUnit":"m.s-1","parameterCategory":1,"la1":30.2991,"la2":30.254,"lo1":-89.0895,"lo2":-89.0444,"dy":0.0017,"dx":0.0017,"nx":28,"ny":28,"refTime":"2025-04-16T03:00:00:Z","depth":0,"parameterNumber":3,"parameterNumberName":"V-component_of_WINDS"},"data":[0,0,0,0,0,0,0,0,0,0,0,0,0,0,0,0,0,0,0,0,0,0,0,0,0,0,0,0,0,0,0,0,0,0,0,0,0,0,0,0,0,0,0,0,0,0,0,0,0,0,0,0,0,0,0,0,0,0,2.2342,2.2341,0,2.2298,2.2297,2.2297,2.222,2.2219,2.2217,2.2216,2.2171,2.2171,2.2171,0,0,0,0,0,0,0,0,0,0,0,0,0,2.2356,2.2357,2.2342,2.2341,2.2341,2.2298,2.2297,2.2297,2.2221,2.2219,2.2217,2.2215,2.2171,2.2171,2.2171,0,0,0,0,0,0,0,0,0,0,0,0,0,2.2335,2.2357,2.2342,2.2297,2.2293,2.2298,2.2297,2.2297,2.2221,2.2219,2.2217,2.2215,2.2171,2.2171,2.2171,2.2216,0,0,2.2172,2.2172,0,0,0,0,0,0,0,0,2.2336,2.2335,2.2304,2.23,2.2296,2.2262,2.2286,2.227,2.2221,2.2248,2.2216,2.2214,2.2203,2.22,2.2197,2.2214,2.2212,2.2172,2.2172,2.2172,2.2172,0,0,0,0,0,0,0,2.2338,2.2336,2.2324,2.2304,2.2299,2.2279,2.2273,2.2282,2.2238,2.2246,2.224,2.2236,2.22,2.2197,2.2195,2.2211,2.2172,2.2172,2.2172,2.2172,2.2258,2.226,0,0,0,0,0,0,2.2346,2.2338,2.2326,2.2323,2.2311,2.228,2.2274,2.2275,2.2238,2.223,2.2238,2.2233,2.2198,2.2195,2.2193,2.224,2.2172,2.2172,2.2172,2.2256,2.2258,2.2261,0,0,0,0,0,0,2.2347,2.2346,2.2327,2.2329,2.2325,2.2282,2.2284,2.2275,2.2272,2.2232,2.2224,2.2243,2.2196,2.2193,2.221,2.2238,2.2172,2.2173,2.2253,2.2257,2.226,2.2337,0,0,0,0,0,0,2.2348,2.2347,2.2364,2.233,2.2325,2.2346,2.2286,2.2276,2.2273,2.2265,2.2235,2.2227,2.2194,2.221,2.221,2.2237,2.2173,2.2251,2.2255,2.2259,2.2331,2.2342,2.2351,0,0,0,0,0,2.2348,2.2388,2.2365,2.2364,2.2346,2.2348,2.2345,2.2306,2.2276,2.2292,2.2265,2.2228,2.2235,2.2212,2.2212,2.2239,2.2249,2.2254,2.2258,2.2327,2.234,2.2351,0,0,0,0,0,0,2.2427,2.2383,2.2357,2.2387,2.2372,2.2335,2.2354,2.2321,2.2314,2.2308,2.2259,2.2253,2.2275,2.2259,2.2235,2.2278,2.2236,2.2241,2.2288,2.23,2.231,2.2313,2.2173,0,0,0,0,0,2.2448,2.2454,2.2414,2.2445,2.2438,2.2398,2.2397,2.2368,2.235,2.2343,2.2318,2.2301,2.2299,2.2299,2.2295,2.2329,2.2319,2.2347,2.2357,2.2365,2.237,2.2383,2.2394,2.2277,2.2277,2.2276,0,0,2.2491,2.2468,2.2474,2.246,2.2444,2.2449,2.2393,2.2402,2.2404,2.2344,2.2358,2.2339,2.2317,2.2341,2.2351,2.2328,2.24,2.2371,2.2378,2.2378,2.2389,2.24,2.241,2.228,2.2279,2.2279,0,0,2.2572,2.2556,2.2578,2.2563,2.254,2.2512,2.2518,2.2485,2.247,2.2483,2.2436,2.2439,2.2437,2.2422,2.2415,2.2487,2.2452,2.2487,2.2539,2.2552,2.2561,2.2569,2.2592,2.2601,2.2492,2.2492,2.2492,0,2.2629,2.2635,2.2593,2.2604,2.2598,2.2543,2.2563,2.2551,2.2528,2.2524,2.2499,2.2494,2.2476,2.2494,2.2511,2.2508,2.2511,2.249,2.2563,2.2571,2.2578,2.2599,2.2608,2.2497,2.2496,2.2496,2.2495,0,2.2704,2.271,2.273,2.2708,2.2704,2.272,2.2679,2.268,2.265,2.2625,2.2637,2.2613,2.2601,2.2604,2.2576,2.2618,2.2604,2.2572,2.2528,2.2594,2.2613,2.2621,2.2503,2.2501,2.25,2.2499,0,0,2.2834,2.2787,2.2795,2.2783,2.2752,2.2755,2.2767,2.2756,2.2756,2.2742,2.2749,2.2748,2.2717,2.2708,2.2678,2.269,2.2745,2.2656,2.2655,2.2671,2.2785,2.2808,2.2819,2.2722,2.2723,2.2724,2.2786,0,2.2907,2.2925,2.2886,2.2913,2.2916,2.2863,2.2873,2.2854,2.283,2.2828,2.2801,2.28,2.2761,2.2755,2.2765,2.2737,2.2767,2.2732,2.2726,2.2726,2.2731,2.2829,2.2854,2.2914,2.2794,2.2795,2.2796,0,2.2995,2.2983,2.301,2.2975,2.2975,2.2985,2.2969,2.2969,2.2945,2.2927,2.2916,2.288,2.2887,2.2846,2.2854,2.2831,2.2826,2.2812,2.2813,2.281,2.2764,2.2826,2.2932,2.294,2.2808,2.2807,2.2806,0,2.3083,2.3075,2.3089,2.3081,2.3041,2.3048,2.3032,2.3007,2.3001,2.2988,2.2983,2.2971,2.2964,2.2955,2.2916,2.289,2.2927,2.2883,2.291,2.2911,2.292,2.2919,2.3024,2.292,2.292,2.292,2.292,0,2.3167,2.3185,2.3128,2.3137,2.3154,2.3109,2.3127,2.3105,2.3083,2.3085,2.3039,2.3041,2.2991,2.2987,2.2957,2.2966,2.2964,2.2948,2.2939,2.2951,2.2953,2.2946,2.294,2.2922,2.2922,2.2921,2.2921,0,2.3269,2.3232,2.3243,2.3204,2.3194,2.3209,2.3174,2.3179,2.3152,2.3155,2.3153,2.311,2.3103,2.3063,2.3048,2.3027,2.3047,2.3031,2.3055,2.3048,2.3077,2.3074,2.3179,2.319,2.3082,2.3083,2.3084,0,2.3324,2.3336,2.3298,2.3296,2.3281,2.3279,2.3272,2.3228,2.3223,2.3195,2.3204,2.3193,2.3182,2.3174,2.314,2.3127,2.3109,2.3147,2.3107,2.3117,2.3106,2.3105,2.3105,2.3155,2.3157,2.3158,2.3159,0,2.3425,2.3405,2.3398,2.3384,2.3377,2.3364,2.3348,2.3348,2.3298,2.3295,2.3287,2.3278,2.3261,2.3251,2.3231,2.3213,2.3177,2.3172,2.3177,2.3188,2.32,2.3191,2.3075,2.3169,2.3168,2.3167,2.3167,2.3166,2.3503,2.351,2.3483,2.3476,2.3459,2.3444,2.3446,2.3418,2.3411,2.3394,2.3367,2.3363,2.3336,2.3307,2.3291,2.3285,2.3265,2.3273,2.3275,2.3277,2.3282,2.3202,2.3282,2.3282,2.3281,2.3281,2.3281,0,2.3599,2.3579,2.3573,2.355,2.3544,2.3511,2.349,2.3487,2.3483,2.3462,2.3451,2.3441,2.343,2.3394,2.3379,2.3381,2.3364,2.3378,2.3377,2.3372,2.3302,2.3298,2.3392,2.3392,2.3392,2.3392,2.3392,2.3392,2.3648,2.3658,2.3635,2.3634,2.3613,2.3608,2.3599,2.3584,2.3566,2.3557,2.3547,2.3524,2.3496,2.3478,2.3465,2.3454,2.345,2.347,2.3454,2.3389,2.3378,2.3368,2.3363,2.347,2.347,2.3524,2.3524,2.3525]}]]